Weather Roundup
Issued by NWS Springfield, MO

Home | Current Version | Previous Version | Text Only | Print | Product List | Glossary On
Versions: 1 2 3 4 5 6 7 8 9 10 11 12 13 14 15 16 17 18 19 20 21 22 23 24 25 26 27 28 29 30 31 32 33 34 35 36 37 38 39 40 41 42 43 44 45 46 47 48 49 50
000
NZUS99 KSGF 021807
HRRSGF

HOURLY WEATHER
NATIONAL WEATHER SERVICE SPRINGFIELD MO
100 PM CDT THU JUL 02 2015

......SGF CWA......

CITY           SKY/WX    TMP DP  RH WIND       PRES   REMARKS
SPRINGFIELD    PTSUNNY   82  73  74 N8        29.88S
6HR MIN TEMP:  70; 6HR MAX TEMP:  82;

JOPLIN         CLOUDY    85  75  72 N7        29.89R HX  93
6HR MIN TEMP:  76; 6HR MAX TEMP:  85;

WEST PLAINS    MOSUNNY   81  71  71 W13       29.89F
6HR MIN TEMP:  69; 6HR MAX TEMP:  82; 6HR PCP: TRACE;

ROLLA          CLOUDY    72  69  90 NE9       29.89S
6HR MIN TEMP:  69; 6HR MAX TEMP:  76;

OSAGE BEACH    CLOUDY    75  68  78 N10       29.90S
BRANSON        CLOUDY    77  73  88 CALM      29.91R

......SURROUNDING SGF CWA......

CITY           SKY/WX    TMP DP  RH WIND       PRES   REMARKS
CHANUTE        CLOUDY    77  70  79 N9        29.92R
PARSONS        CLOUDY    82  73  74 NE8       29.92R
COFFEYVILLE    CLOUDY    87  74  64 N10       29.89R HX  95
EMPORIA        CLOUDY    76  69  79 CALM      29.94F
ROGERS AR      CLOUDY    82  73  74 W10       29.91R
SILOAM SPRINGS PTSUNNY   86  72  62 W15G21    29.91R HX  92
HARRISON AR    CLOUDY    81  72  74 W9        29.90S
NEAR YELLVILLE CLOUDY    82  73  74 W6        29.85S

......KANSAS AND MISSOURI......

CITY           SKY/WX    TMP DP  RH WIND       PRES   REMARKS
KANSAS CTY INT CLOUDY    70  67  90 NE9       29.93F
DOWNTOWN KC    CLOUDY    73  68  84 NE12      29.92F
COLUMBIA       PTSUNNY   73  66  78 NE10      29.92F
SEDALIA        CLOUDY    74  68  81 NE8       29.93S
ST JOSEPH      CLOUDY    71  66  84 NE8       29.93F
ST LOUIS       NOT AVBL
SPIRIT OF STL  CLOUDY    72  64  76 NE7       29.91S
KIRKSVILLE     PTSUNNY   71  59  65 NE8       29.96F
WICHITA        RAIN      78  72  81 NW9       29.97R
TOPEKA         LGT RAIN  74  69  85 E14       29.90F
OLATHE         CLOUDY    73  68  84 VRB3      29.93S

......TENNESSEE......

CITY           SKY/WX    TMP DP  RH WIND       PRES   REMARKS
MEMPHIS        CLOUDY    81  69  67 SW12G21   29.92F
NASHVILLE      CLOUDY    78  73  84 S8        29.93S

......ARKANSAS.......

CITY           SKY/WX    TMP DP  RH WIND       PRES   REMARKS
FAYETTEVILLE   PTSUNNY   84  73  69 SW14      29.90S HX  90
FT SMITH       PTSUNNY   86  70  58 SW15      29.89R HX  90
LITTLE ROCK    MOSUNNY   88  67  49 SW15      29.90F HX  91

......OKLAHOMA.......

CITY           SKY/WX    TMP DP  RH WIND       PRES   REMARKS
TULSA          CLOUDY    90  73  57 NW5       29.87S HX  98
PONCA CITY     CLOUDY    90  72  55 N8        29.88S HX  97
MCALESTER      MOSUNNY   85  72  65 SW15G23   29.93R HX  91
OKLAHOMA CITY  PTSUNNY   90  71  53 SW12      29.92S HX  96

......IOWA............

CITY           SKY/WX    TMP DP  RH WIND       PRES   REMARKS
DES MOINES     CLOUDY    70  54  56 SE8       29.99R
QUAD CITIES    PTSUNNY   70  54  56 NE13      29.99S

......ILLINOIS........

CITY           SKY/WX    TMP DP  RH WIND       PRES   REMARKS
QUINCY         CLOUDY    71  58  63 NE8       29.96R
CHICAGO        MOSUNNY   68  53  58 NE13G20   30.00F




USA.gov is the U.S. government's official web portal to all federal, state and local government web resources and services.